Hourly Data Report for July 24, 2021

WIARTON A
ONTARIO
Current Station Operator: NAVCAN

44°44'39.000" N
81°06'31.000" W
221.90 m
6119499
71633
YVV

Download Data

Hourly Data (July 2021)
Hourly Data Report for July 24, 2021
TIME
LST
Temp Definition
°C
Dew Point Definition
°C
Rel Hum Definition
%
Precip. Amount Definition
mm

Wind Dir Definition
10's deg

Wind Spd Definition
km/h
Visibility Definition
km
Stn Press Definition
kPa
Hmdx Definition


Wind Chill Definition


Weather Definition


00:00 15.5 11.8 78   12 11 24.1 99.17     LegendNANA
01:00 15.2 12.4 83   13 10 24.1 99.16     Mainly Clear
02:00 16.0 13.7 86   15 14 24.1 99.10     LegendNANA
03:00 16.0 13.9 87   15 13 24.1 99.05     LegendNANA
04:00 16.5 13.2 81   15 14 24.1 98.97     Mostly Cloudy
05:00 16.7 12.4 75   16 14 24.1 98.91     LegendNANA
06:00 17.8 12.0 68   16 18 24.1 98.84     LegendNANA
07:00 18.8 12.8 68   17 17 24.1 98.77     Cloudy
08:00 19.7 13.0 65   16 19 24.1 98.75     LegendNANA
09:00 17.9 14.2 79   16 20 16.1 98.75     Rain
10:00 17.6 15.7 88   16 17 16.1 98.70     Rain
11:00 18.1 17.0 93   17 19 4.8 98.63     Rain Showers, Fog
12:00 19.0 18.5 97   18 27 4.8 98.56     Rain Showers, Fog
13:00 19.7 19.5 99   17 27 6.4 98.39     Rain Showers, Fog
14:00 20.7 20.2 97   16 25 24.1 98.27 28   LegendNANA
15:00 21.4 20.5 94   18 27 24.1 98.19 29   LegendNANA
16:00 22.4 21.2 93   18 29 24.1 98.01 31   Cloudy
17:00 22.6 21.2 92   18 28 24.1 97.88 31   LegendNANA
18:00 22.1 21.5 96   19 26 3.2 97.84 31   Thunderstorms,Rain Showers, Fog
19:00 20.4 20.2 99   27 19 6.4 97.83 28   Thunderstorms,Rain Showers, Fog
20:00 19.2 18.9 98   27 10 16.1 97.92     LegendNANA
21:00 19.1 18.9 99   26 14 16.1 98.07     LegendNANA
22:00 18.6 18.5 99   26 12 9.7 98.11     Fog
23:00 18.3 18.0 98   27 9 9.7 98.16     Fog

Notes on Data Quality.

Legend

  • E = Estimated
  • M = Missing
  • NA = Not Available*
  • [empty] = Indicates an unobserved value
Date modified: